Погода в Косолманке

Россия / Свердловская область     58°44′46″N   60°32′08″E
темп.,
°C
ветер,
м/с
пор.,
м/с
влажн.,
%
обл.,
%
осадки,
мм/ч
давл.,
гПа
погр.,
м
19 мая, ср
ср1923:00+10с22804 0.0 102429
02:00+8с11845 0.0 102410
05:00+7ю00905 0.0 102510
08:00+13в01625 0.0 1026433
11:00+18вюв114010 0.0 10251233
14:00+22всв11316 0.0 10241638
17:00+22в01305 0.0 10231837
20:00+18юв2244100 0.0 102226
20 мая, чт
чт2023:00+14ю355376 0.0 102390
02:00+12юз36607 0.0 1022110
05:00+12зюз376362 0.0 1022116
08:00+19зюз374395 0.0 1021374
11:00+24з452913 0.0 10201553
14:00+27з35225 0.0 10191998
17:00+28зсз34215 0.0 10182138
20:00+23з22370 0.0 101713
21 мая, пт
пт2123:00+17з22480 0.0 101836
02:00+15з22545 0.0 101817
05:00+15зюз11583 0.0 101811
08:00+21ююз234414 0.0 1018269
11:00+27ююз35270 0.0 10171762
14:00+29ю45210 0.0 10162525
17:00+29ююз46224 0.0 10143067
20:00+24юз26365 0.0 1014131
22 мая, сб
сб2223:00+18зюз39575 0.0 1015171
02:00+18юз396699 0.0 1016496
05:00+15юз3986100 0.0 1016249
08:00+19юз5961100 0.0 1016685
11:00+23зюз6104038 0.0 10162497
14:00+25зюз7103168 0.0 10152967
17:00+23зюз6942100 0.0 10152389
20:00+20зюз4850100 0.0 10161048
23 мая, вс
вс2323:00+16зюз2762100 0.0 1017186
02:00+14зюз3975100 0.1 1017225
05:00+14з2979100 0.2 1018262
08:00+18зсз35500 0.0 1019523
11:00+22з57284 0.0 10202235
14:00+24з57245 0.0 10202390
17:00+25з572482 0.0 10192358
20:00+21зюз234262 0.0 102073